When you browse on this site, cookies collect data to enhance your experience and personalize the content and advertising you see.
Visit our Privacy Policy to learn more. By continuing to use the site, you agree to this use of cookies and data.
  • In United Kingdom
  • List of Countries
  • For 7 days
  • Water Temperature
  • Weather Map
  • Weather Widgets
  • user-avatar
    Login

    Hourly Weather Mutare

    Today, 20 September, Friday

    Time Temperature Precipitation Wind Pressure Humidity
    00:00 +12°C° 0 mm 1 mps 656 mmHg 65%
    01:00 +11°C° 0 mm 1 mps 655 mmHg 65%
    02:00 +10°C° 0 mm 1 mps 655 mmHg 68%
    03:00 +10°C° 0 mm 1 mps 655 mmHg 64%
    04:00 +10°C° 0 mm 1 mps 655 mmHg 59%
    05:00 +10°C° 0 mm 1 mps 655 mmHg 55%
    06:00 +13°C° 0 mm 1 mps 656 mmHg 44%
    07:00 +18°C° 0 mm 1 mps 657 mmHg 33%
    08:00 +20°C° 0 mm 2 mps 659 mmHg 28%
    09:00 +23°C° 0 mm 2 mps 659 mmHg 26%
    10:00 +25°C° 0 mm 3 mps 659 mmHg 23%
    11:00 +27°C° 0 mm 4 mps 659 mmHg 20%
    12:00 +27°C° 0 mm 4 mps 658 mmHg 20%
    13:00 +28°C° 0 mm 4 mps 658 mmHg 19%
    14:00 +29°C° 0 mm 4 mps 657 mmHg 19%
    15:00 +27°C° 0 mm 4 mps 657 mmHg 22%
    16:00 +26°C° 0 mm 4 mps 656 mmHg 25%
    17:00 +25°C° 0 mm 4 mps 656 mmHg 28%
    18:00 +22°C° 0 mm 4 mps 656 mmHg 37%
    19:00 +19°C° 0 mm 3 mps 656 mmHg 47%
    20:00 +17°C° 0 mm 3 mps 655 mmHg 56%
    21:00 +15°C° 0 mm 2 mps 655 mmHg 66%
    22:00 +14°C° 0 mm 2 mps 655 mmHg 75%
    23:00 +13°C° 0 mm 2 mps 655 mmHg 85%

    Tomorrow, 21 September, Saturday

    Time Temperature Precipitation Wind Pressure Humidity
    00:00 +12°C° 0 mm 1 mps 654 mmHg 88%
    01:00 +12°C° 0 mm 1 mps 654 mmHg 90%
    02:00 +11°C° 0 mm 1 mps 653 mmHg 93%
    03:00 +11°C° 0 mm 1 mps 653 mmHg 91%
    04:00 +11°C° 0 mm 1 mps 653 mmHg 89%
    05:00 +9°C° 0 mm 0 mps 653 mmHg 87%
    06:00 +14°C° 0 mm 1 mps 654 mmHg 71%
    07:00 +18°C° 0 mm 1 mps 655 mmHg 55%
    08:00 +21°C° 0 mm 1 mps 656 mmHg 39%
    09:00 +24°C° 0 mm 2 mps 657 mmHg 32%
    10:00 +27°C° 0 mm 2 mps 657 mmHg 24%
    11:00 +29°C° 0 mm 3 mps 658 mmHg 17%
    12:00 +30°C° 0 mm 3 mps 657 mmHg 16%
    13:00 +30°C° 0 mm 4 mps 656 mmHg 15%
    14:00 +32°C° 0 mm 4 mps 655 mmHg 14%
    15:00 +30°C° 0 mm 4 mps 655 mmHg 16%
    16:00 +28°C° 0 mm 4 mps 655 mmHg 18%
    17:00 +27°C° 0 mm 4 mps 654 mmHg 20%
    18:00 +24°C° 0 mm 3 mps 654 mmHg 28%
    19:00 +20°C° 0 mm 3 mps 653 mmHg 36%
    20:00 +18°C° 0 mm 2 mps 653 mmHg 44%
    21:00 +17°C° 0 mm 2 mps 653 mmHg 49%
    22:00 +16°C° 0 mm 1 mps 653 mmHg 54%
    23:00 +15°C° 0 mm 1 mps 653 mmHg 58%

    Day after tomorrow, 22 September, Sunday

    Time Temperature Precipitation Wind Pressure Humidity
    00:00 +14°C° 0 mm 1 mps 653 mmHg 60%
    01:00 +14°C° 0 mm 1 mps 652 mmHg 61%
    02:00 +13°C° 0 mm 1 mps 652 mmHg 63%
    03:00 +13°C° 0 mm 1 mps 652 mmHg 61%
    04:00 +13°C° 0 mm 1 mps 652 mmHg 60%
    05:00 +13°C° 0 mm 1 mps 652 mmHg 58%
    06:00 +18°C° 0 mm 1 mps 653 mmHg 48%
    07:00 +21°C° 0 mm 1 mps 654 mmHg 38%
    08:00 +25°C° 0 mm 1 mps 656 mmHg 28%
    09:00 +28°C° 0 mm 1 mps 656 mmHg 24%
    10:00 +31°C° 0 mm 1 mps 656 mmHg 19%
    11:00 +34°C° 0 mm 1 mps 657 mmHg 15%
    12:00 +35°C° 0 mm 2 mps 656 mmHg 15%
    13:00 +35°C° 0 mm 3 mps 655 mmHg 15%
    14:00 +35°C° 0 mm 3 mps 654 mmHg 15%
    15:00 +34°C° 0 mm 3 mps 654 mmHg 17%
    16:00 +32°C° 0 mm 4 mps 654 mmHg 19%
    17:00 +30°C° 0 mm 4 mps 653 mmHg 21%
    18:00 +28°C° 0 mm 3 mps 653 mmHg 26%
    19:00 +25°C° 0 mm 3 mps 653 mmHg 31%
    20:00 +23°C° 0 mm 2 mps 653 mmHg 36%
    21:00 +21°C° 0 mm 2 mps 653 mmHg 41%
    22:00 +19°C° 0 mm 2 mps 653 mmHg 47%
    23:00 +18°C° 0 mm 2 mps 653 mmHg 52%

    23 September, Monday

    Time Temperature Precipitation Wind Pressure Humidity
    00:00 +17°C° 0 mm 2 mps 653 mmHg 56%
    01:00 +18°C° 0 mm 1 mps 652 mmHg 61%
    02:00 +16°C° 0 mm 1 mps 652 mmHg 66%
    03:00 +16°C° 0 mm 1 mps 652 mmHg 66%
    04:00 +16°C° 0 mm 1 mps 652 mmHg 66%
    05:00 +16°C° 0 mm 1 mps 652 mmHg 67%
    06:00 +20°C° 0 mm 1 mps 653 mmHg 56%
    07:00 +23°C° 0 mm 1 mps 655 mmHg 46%
    08:00 +27°C° 0 mm 1 mps 656 mmHg 36%
    09:00 +29°C° 0 mm 2 mps 656 mmHg 31%
    10:00 +31°C° 0 mm 3 mps 657 mmHg 25%
    11:00 +34°C° 0 mm 4 mps 657 mmHg 20%
    12:00 +34°C° 0 mm 4 mps 656 mmHg 20%
    13:00 +34°C° 0 mm 4 mps 656 mmHg 20%
    14:00 +34°C° 0 mm 5 mps 656 mmHg 20%
    15:00 +33°C° 0 mm 5 mps 655 mmHg 23%
    16:00 +32°C° 0 mm 5 mps 655 mmHg 26%
    17:00 +29°C° 0 mm 5 mps 655 mmHg 28%
    18:00 +26°C° 0 mm 5 mps 655 mmHg 47%
    19:00 +22°C° 0 mm 5 mps 656 mmHg 65%
    20:00 +19°C° 0 mm 4 mps 656 mmHg 83%
    21:00 +18°C° 0 mm 4 mps 656 mmHg 85%
    22:00 +17°C° 0 mm 3 mps 656 mmHg 88%
    23:00 +16°C° 0 mm 3 mps 656 mmHg 90%

    24 September, Tuesday

    Time Temperature Precipitation Wind Pressure Humidity
    00:00 +16°C° 0 mm 3 mps 655 mmHg 90%
    01:00 +16°C° 0 mm 2 mps 655 mmHg 90%
    02:00 +15°C° 0 mm 2 mps 655 mmHg 90%
    03:00 +15°C° 0 mm 2 mps 655 mmHg 90%
    04:00 +15°C° 0 mm 2 mps 655 mmHg 89%
    05:00 +15°C° 0 mm 2 mps 656 mmHg 88%
    06:00 +17°C° 0.1 mm 3 mps 656 mmHg 81%
    07:00 +18°C° 0.1 mm 3 mps 657 mmHg 74%
    08:00 +19°C° 0.1 mm 4 mps 658 mmHg 67%
    09:00 +21°C° 0 mm 4 mps 658 mmHg 58%
    10:00 +23°C° 0 mm 4 mps 658 mmHg 48%
    11:00 +26°C° 0 mm 5 mps 658 mmHg 39%
    12:00 +27°C° 0 mm 5 mps 658 mmHg 38%
    13:00 +27°C° 0 mm 5 mps 658 mmHg 37%
    14:00 +28°C° 0 mm 5 mps 657 mmHg 35%
    15:00 +26°C° 0 mm 5 mps 657 mmHg 42%
    16:00 +23°C° 0 mm 5 mps 657 mmHg 49%
    17:00 +22°C° 0 mm 5 mps 656 mmHg 56%
    18:00 +20°C° 0 mm 4 mps 656 mmHg 65%
    19:00 +18°C° 0 mm 4 mps 657 mmHg 74%
    20:00 +17°C° 0 mm 4 mps 657 mmHg 83%
    21:00 +16°C° 0.1 mm 3 mps 657 mmHg 86%
    22:00 +16°C° 0.1 mm 3 mps 657 mmHg 88%
    23:00 +16°C° 0.1 mm 3 mps 657 mmHg 90%

    25 September, Wednesday

    Time Temperature Precipitation Wind Pressure Humidity
    00:00 +16°C° 0.2 mm 3 mps 657 mmHg 89%
    01:00 +16°C° 0.2 mm 3 mps 656 mmHg 88%
    02:00 +16°C° 0.2 mm 3 mps 656 mmHg 87%
    03:00 +14°C° 0.2 mm 3 mps 656 mmHg 88%
    04:00 +14°C° 0.2 mm 3 mps 656 mmHg 89%
    05:00 +13°C° 0.2 mm 3 mps 656 mmHg 90%
    06:00 +14°C° 0.1 mm 3 mps 657 mmHg 86%
    07:00 +14°C° 0.1 mm 4 mps 658 mmHg 81%
    08:00 +14°C° 0.1 mm 4 mps 658 mmHg 76%
    09:00 +17°C° 0.1 mm 4 mps 659 mmHg 69%
    10:00 +18°C° 0.1 mm 4 mps 659 mmHg 62%
    11:00 +19°C° 0.1 mm 4 mps 659 mmHg 54%
    12:00 +19°C° 0 mm 4 mps 659 mmHg 53%
    13:00 +19°C° 0 mm 3 mps 658 mmHg 51%
    14:00 +19°C° 0 mm 3 mps 658 mmHg 49%
    15:00 +19°C° 0 mm 3 mps 658 mmHg 51%
    16:00 +18°C° 0 mm 3 mps 658 mmHg 52%
    17:00 +18°C° 0 mm 3 mps 658 mmHg 53%
    18:00 +17°C° 0 mm 3 mps 658 mmHg 55%
    19:00 +16°C° 0 mm 3 mps 658 mmHg 57%
    20:00 +15°C° 0 mm 2 mps 659 mmHg 59%
    21:00 +14°C° 0 mm 2 mps 658 mmHg 64%
    22:00 +13°C° 0 mm 2 mps 658 mmHg 70%
    23:00 +12°C° 0 mm 2 mps 658 mmHg 76%
    Show more